Temperature
20 20 20 20 23 24 23 23 23 23 23 21 21 22 22 21 21 20 17 16 16 16 16 16 16 16 16 16 16 16 16 16 16 16 16 16 16 16 16 16 16 17 17 17 17 17 17 17 17
20 20 20 22 24 24 23 23 23 23 22 21 21 21 21 19 18 17 17 16 16 16 16 16 16 16 16 16 16 16 16 16 16 16 16 16 16 16 16 16 16 16 16 16 17 17 17 17 17
20 20 21 24 24 24 23 23 23 22 21 21 21 20 20 19 18 17 17 16 16 16 16 16 16 16 16 16 16 16 16 16 16 16 16 16 16 16 16 16 16 16 16 16 16 17 17 17 17
20 21 23 24 24 23 23 23 23 22 21 21 21 20 19 18 18 17 16 16 16 16 16 16 16 16 16 16 16 16 15 15 16 15 15 16 16 16 16 16 16 16 16 16 16 16 17 17 17
20 23 24 24 23 23 23 23 22 23 22 21 21 21 19 17 17 17 16 16 16 16 16 16 16 16 16 16 16 15 15 15 15 15 16 16 16 16 16 16 16 16 16 16 16 16 16 17 17
22 24 24 24 23 23 23 22 22 22 22 21 21 20 19 17 17 17 16 16 16 16 16 16 16 16 16 16 16 16 15 15 15 15 15 15 15 15 15 15 16 16 16 16 16 16 16 16 17
23 24 24 24 23 23 23 22 22 22 22 21 21 20 19 17 17 17 16 16 16 16 16 16 16 16 16 16 16 15 15 15 15 15 15 15 15 15 15 15 16 16 16 16 16 16 16 16 16
22 24 24 23 23 23 22 22 22 22 21 20 20 21 19 18 17 17 16 16 16 16 16 16 16 16 16 15 15 15 15 15 15 15 15 15 15 15 15 15 15 16 16 16 16 16 16 16 16
22 24 24 23 23 23 22 22 21 21 20 20 20 20 19 17 17 17 17 17 16 16 16 16 16 16 16 16 15 15 15 15 15 15 15 15 15 15 15 15 15 15 16 16 16 16 16 16 16
23 24 23 23 24 23 22 22 22 21 21 20 19 18 18 17 17 17 17 17 17 17 17 16 16 16 16 16 15 15 15 15 15 15 15 15 15 15 15 15 15 16 15 16 16 16 16 16 16
23 23 23 23 22 22 22 22 21 22 22 21 20 18 18 18 18 18 18 18 17 17 17 17 17 16 16 16 16 15 15 15 15 15 15 15 15 15 15 15 15 15 15 15 15 15 15 15 16
23 22 22 22 22 22 22 22 22 21 21 20 19 19 18 18 18 18 18 18 17 17 17 16 17 16 16 16 16 16 16 15 15 15 15 15 15 15 15 15 15 15 15 15 15 15 15 15 15
23 22 21 21 21 22 22 21 21 20 19 19 19 18 18 18 18 18 18 18 17 17 17 16 16 16 16 16 16 16 16 16 16 15 15 15 15 15 15 15 15 15 15 15 15 15 15 15 15
22 22 22 21 21 21 22 21 21 20 19 19 19 18 18 18 18 18 18 18 18 17 17 16 16 16 16 16 16 16 16 16 15 15 15 15 15 15 15 15 15 15 15 15 15 15 15 15 15
22 23 22 22 22 21 22 22 21 20 19 19 19 19 18 18 18 18 18 18 18 17 17 17 16 16 16 16 16 16 16 16 15 15 16 15 15 15 15 15 15 15 15 15 15 15 15 15 15
23 23 22 22 22 21 22 21 21 19 19 19 19 19 18 18 18 18 18 18 18 17 17 17 16 16 16 16 16 16 16 16 15 15 15 15 15 15 15 15 15 15 15 15 15 15 15 15 15
23 23 22 22 22 22 22 21 21 19 19 19 19 19 19 18 18 18 18 18 17 17 17 17 16 16 16 16 16 16 16 16 15 15 15 15 15 15 15 15 15 15 15 15 15 15 15 15 15
23 23 22 22 22 22 22 21 21 19 19 19 19 19 19 19 18 18 18 17 17 17 17 17 16 16 16 16 16 16 16 16 15 15 15 15 15 15 15 15 15 15 15 15 15 15 14 14 14
23 23 22 22 22 22 22 21 21 20 20 20 19 19 20 19 19 18 18 17 17 17 17 17 17 16 16 16 16 16 16 15 15 15 15 15 15 15 15 15 15 15 15 15 15 14 14 14 14
22 22 22 22 22 22 22 22 22 21 20 20 20 20 20 19 19 18 18 18 18 17 17 17 17 16 16 16 16 16 16 15 15 15 15 15 15 15 15 15 15 15 15 15 14 14 14 14 14
22 22 22 22 21 22 22 22 22 21 20 20 19 20 20 19 19 19 18 18 18 17 17 17 17 16 16 16 16 16 16 15 15 15 15 15 15 15 15 15 15 15 15 14 14 14 14 14 14
22 22 22 21 21 22 22 22 22 22 21 21 20 20 20 19 19 19 18 18 18 17 17 17 17 16 16 16 16 16 16 16 15 15 15 15 15 15 15 15 15 15 14 14 14 14 14 14 14
22 22 22 21 22 22 22 22 23 22 21 22 21 20 20 19 19 18 18 18 18 17 17 17 17 16 16 16 16 16 16 15 15 15 15 15 15 15 15 15 15 15 15 14 14 14 14 14 14
21 21 21 21 22 21 22 22 22 23 22 22 22 21 20 19 19 18 18 18 17 17 17 17 17 16 16 16 16 16 15 15 15 15 15 15 15 15 15 15 15 15 14 14 14 14 14 14 14
22 22 21 21 21 22 22 22 22 23 23 23 22 21 20 20 19 18 18 18 17 17 17 17 17 17 16 16 16 16 16 16 15 15 15 15 15 15 15 15 15 15 14 14 14 14 14 14 14
22 22 21 21 21 22 22 22 23 23 22 22 21 21 20 20 19 19 18 18 17 17 17 17 17 17 16 16 16 16 16 16 16 15 15 15 15 15 15 15 15 15 15 14 14 14 14 14 14
22 22 22 22 22 21 22 23 23 23 23 22 21 21 20 20 19 19 18 18 18 17 17 17 17 17 17 16 16 16 16 16 16 15 15 15 15 15 15 15 15 15 15 15 14 14 14 14 14
22 22 22 21 21 21 22 22 23 23 23 22 22 21 20 20 19 19 18 18 18 18 17 17 17 17 17 16 16 16 16 16 16 16 15 15 15 15 15 15 15 15 15 14 14 14 14 14 14
21 21 22 22 21 21 21 22 23 23 23 23 22 21 20 20 19 18 18 18 18 18 17 17 17 17 17 16 16 16 16 16 16 16 15 15 15 15 15 15 15 15 15 15 14 14 14 14 14
22 22 22 21 21 21 21 22 24 23 23 22 22 21 20 20 19 18 18 18 17 17 17 17 17 17 17 17 16 16 16 16 16 16 15 15 15 15 15 15 15 15 15 15 14 14 14 14 14
Wind_Speed
2 3 2 2 3 2 4 4 4 4 4 5 6 5 6 6 5 6 5 6 6 7 7 9 9 8 8 8 8 9 9 8 8 8 8 8 8 9 9 8 9 9 8 8 8 8 8 8 8
2 2 2 3 2 3 4 4 5 6 6 5 5 6 7 7 6 7 6 6 7 7 7 9 9 8 8 8 9 9 8 8 8 8 8 7 7 8 8 8 8 8 8 8 8 7 8 7 7
3 2 2 1 1 3 5 5 7 7 5 3 4 5 5 6 6 5 7 8 7 8 8 9 8 8 8 8 9 8 8 8 8 8 8 8 7 7 8 8 8 8 8 8 8 7 7 7 7
2 2 1 2 6 6 5 6 5 6 5 4 5 6 6 5 5 8 9 8 8 8 8 9 7 7 8 8 8 8 8 8 8 8 7 7 7 7 7 7 7 7 7 8 8 7 7 8 8
2 2 2 4 6 5 5 5 3 3 4 5 5 7 7 6 9 10 9 8 8 8 7 8 7 7 8 8 8 8 8 8 8 8 7 7 7 7 7 7 7 7 7 7 8 8 8 8 8
1 1 2 5 6 6 5 4 3 5 6 6 7 8 7 8 10 10 8 7 7 7 7 8 9 8 8 8 8 8 9 8 8 8 8 7 7 7 7 7 7 7 7 7 7 8 8 8 8
1 0 3 5 6 5 4 3 3 5 6 6 5 7 7 9 9 9 8 7 7 6 6 6 7 8 8 8 8 8 8 8 8 8 8 8 8 7 7 7 7 7 7 7 7 8 8 8 8
1 1 4 4 4 5 5 4 4 4 6 5 3 5 7 9 9 9 8 7 6 6 6 6 6 6 7 8 8 7 8 8 8 9 8 6 7 7 6 6 7 7 7 8 8 8 8 9 9
1 1 3 3 3 4 5 5 4 4 6 5 4 5 9 12 11 10 8 7 6 5 5 5 5 6 6 6 7 6 7 7 5 7 6 3 5 6 6 9 8 8 8 8 8 8 8 7 9
0 2 3 3 3 4 5 4 5 5 6 6 7 8 11 12 11 9 8 7 7 6 5 5 5 5 5 5 5 4 5 5 6 6 6 6 6 7 7 10 9 8 7 8 8 6 5 3 5
2 3 5 4 4 4 5 5 4 4 5 5 8 11 12 11 10 8 7 6 6 5 5 4 4 4 4 4 4 4 4 4 5 6 5 5 5 5 5 5 6 6 5 6 6 4 5 6 5
4 5 4 5 4 4 4 5 4 3 4 5 8 11 12 10 9 7 6 6 5 5 4 4 3 4 4 5 4 3 4 4 5 5 6 5 4 4 5 5 5 5 5 5 5 5 7 7 6
6 5 6 5 5 4 6 5 4 4 5 8 10 11 10 8 7 6 5 5 5 5 4 4 3 3 4 4 3 3 4 4 5 4 4 5 4 4 5 5 5 5 5 5 5 6 6 6 6
6 7 6 4 4 3 4 4 3 4 7 9 10 10 8 7 6 6 6 5 5 4 4 4 3 3 3 3 2 3 3 3 4 4 5 5 5 5 4 5 5 5 5 5 5 6 5 6 6
6 6 5 3 2 2 3 3 3 5 7 8 9 8 7 6 6 5 5 5 4 4 4 4 3 3 3 3 3 3 2 3 3 4 4 5 5 5 5 4 4 5 5 6 5 6 6 6 6
4 4 3 3 2 2 4 2 4 6 8 7 7 7 7 6 6 6 5 5 5 4 4 4 3 3 3 2 2 3 3 3 4 4 4 4 5 5 5 4 4 5 5 5 4 4 5 6 6
4 3 3 3 2 2 3 2 4 6 7 7 7 7 7 7 7 6 6 6 5 5 5 5 4 3 4 3 3 3 4 4 4 4 4 4 4 4 5 4 4 5 4 4 4 5 5 6 6
3 2 2 2 2 4 4 3 4 6 7 7 7 7 8 7 7 7 6 6 6 5 5 5 5 4 4 3 3 3 4 4 4 4 4 5 4 4 4 4 4 4 4 4 4 5 5 5 5
1 2 2 1 1 3 4 3 5 6 7 7 7 8 8 7 7 7 7 7 7 6 5 6 6 5 4 3 3 3 3 3 3 4 5 5 4 4 4 3 4 3 3 4 4 5 5 4 4
3 3 1 1 0 2 2 3 4 7 9 9 9 9 9 8 8 8 8 8 8 7 6 6 5 5 4 3 2 2 3 3 3 3 4 4 4 3 3 3 3 3 3 4 4 3 3 3 1
3 3 2 1 1 2 3 3 5 5 6 7 8 8 8 9 9 9 9 9 9 8 8 6 6 6 4 4 3 3 3 3 3 3 3 4 4 4 3 3 3 3 3 3 2 2 2 1 1
3 1 2 3 3 2 3 2 3 5 6 7 8 9 8 8 9 9 9 9 9 9 8 7 7 6 5 5 4 3 3 3 3 2 3 4 4 3 3 3 2 2 2 2 2 1 0 0 1
1 1 2 3 4 4 4 4 1 5 5 6 8 9 9 9 9 10 10 9 9 9 8 7 7 6 6 5 4 3 3 3 3 3 4 3 3 3 3 3 3 3 2 2 1 1 1 1 2
3 3 3 3 4 4 2 3 1 2 4 5 6 8 9 9 9 9 9 9 9 8 8 7 7 7 6 5 5 4 4 3 4 3 3 3 3 3 3 3 3 2 2 2 1 1 1 1 2
5 4 3 4 3 1 1 3 2 0 2 4 6 7 8 9 10 10 10 10 10 10 9 9 9 8 7 6 5 5 4 4 4 4 4 3 3 3 3 2 2 2 2 2 1 1 0 0 1
5 5 3 2 2 1 2 3 0 1 2 3 4 5 7 9 9 10 10 10 10 10 10 10 9 8 7 6 5 5 5 4 3 3 3 3 2 2 3 2 2 3 2 2 2 1 1 1 1
4 4 3 3 2 3 2 1 1 1 1 2 3 5 7 8 9 10 10 10 10 10 11 10 10 9 8 8 6 6 5 5 4 4 3 3 3 3 3 3 3 3 2 2 2 1 1 2 1
3 3 4 4 2 2 1 2 0 1 1 2 4 5 6 8 9 9 9 10 10 10 10 10 9 9 9 8 7 6 6 5 5 4 4 4 3 3 3 3 3 3 3 2 1 1 2 2 2
4 5 4 3 3 3 1 1 2 0 1 3 3 5 6 8 8 9 9 9 9 9 10 10 9 9 9 9 8 7 6 6 6 5 4 4 4 4 3 3 2 2 2 2 2 1 1 1 2
6 6 6 5 3 3 3 0 2 0 1 3 3 4 6 7 8 8 8 9 9 10 10 10 9 9 8 8 8 7 7 6 6 5 5 5 4 4 4 3 3 2 2 2 2 2 1 1 1
Wind_Direction
155 159 202 234 222 124 80 66 70 83 74 69 67 72 73 52 41 81 101 109 106 103 97 98 86 82 80 77 78 78 77 75 76 77 78 76 73 72 71 74 72 70 70 69 69 71 78 78 76
151 167 226 244 240 119 90 82 79 68 93 99 76 73 76 71 66 93 113 110 110 103 96 89 88 80 77 77 80 80 79 79 79 78 77 77 75 73 71 73 72 71 69 69 69 73 78 77 76
165 221 261 237 85 69 93 90 93 93 95 89 85 64 65 79 91 102 113 121 115 104 97 93 87 78 75 72 74 79 82 81 78 76 74 73 74 72 73 73 72 73 70 67 67 72 79 80 79
217 219 224 107 92 68 87 104 108 115 96 78 100 90 80 69 91 111 121 124 116 110 101 94 87 81 77 75 74 76 77 78 79 77 73 71 72 74 76 76 74 73 71 68 66 70 77 83 83
238 245 153 113 94 87 91 98 98 94 89 92 98 98 93 88 104 116 122 122 117 110 101 97 85 80 77 74 75 75 74 75 74 73 71 71 71 72 74 76 76 77 73 70 68 69 74 77 81
230 238 152 119 107 105 100 100 104 94 100 104 105 104 97 117 122 122 123 120 112 106 101 101 98 83 74 70 73 73 72 68 65 67 71 71 70 69 66 72 79 78 74 74 73 73 75 76 76
301 71 105 117 120 115 101 99 95 101 103 99 108 108 117 129 125 127 123 117 109 106 105 101 101 102 96 77 67 68 67 64 62 64 71 70 67 66 63 70 78 79 79 79 77 78 75 75 74
351 121 120 120 127 108 110 113 94 92 97 101 105 116 134 138 138 134 127 122 118 113 107 105 99 91 89 91 75 64 67 65 67 68 70 77 88 82 73 82 83 83 81 80 80 80 77 77 73
264 166 126 121 121 111 129 128 102 102 114 104 86 96 127 137 143 141 137 133 124 115 109 107 100 94 85 81 82 85 86 76 89 90 86 87 74 75 80 71 80 85 80 77 79 80 79 87 87
237 130 95 87 98 121 129 123 124 135 122 116 110 112 132 144 150 148 147 140 133 123 114 109 101 97 94 84 84 74 73 68 63 60 62 64 68 65 71 88 86 85 87 90 82 88 104 98 89
76 94 101 97 103 124 127 118 127 139 119 126 136 139 146 152 154 153 146 137 130 126 122 113 107 100 94 89 75 67 65 67 69 62 68 67 75 81 76 85 98 93 95 87 95 99 75 74 71
104 88 98 102 109 124 123 125 116 92 89 114 133 142 149 157 160 162 154 144 138 124 116 113 109 106 97 89 79 71 71 66 65 61 60 67 67 71 74 75 74 78 79 75 73 73 73 72 72
112 107 96 100 101 106 117 116 109 88 99 119 130 139 146 150 154 159 152 149 140 130 131 121 117 101 99 88 72 78 73 62 73 65 66 70 75 79 83 83 78 74 79 84 78 77 76 73 68
111 116 112 107 106 113 127 120 123 110 126 132 138 142 147 150 157 156 157 154 144 140 131 124 120 111 106 104 96 79 73 84 70 63 67 70 76 79 80 81 76 73 76 77 84 81 77 72 70
130 131 127 118 127 132 157 135 142 141 147 146 148 146 147 155 164 165 159 157 149 142 135 123 119 118 108 95 82 78 76 79 77 68 67 74 77 81 78 77 80 81 87 87 80 80 79 76 75
161 173 165 133 156 170 217 166 136 158 163 158 158 155 162 171 179 176 172 170 157 150 139 128 134 133 121 109 96 84 79 76 78 77 71 76 83 86 86 83 84 90 91 90 88 82 85 80 72
189 188 166 150 172 196 224 195 154 168 175 170 173 175 175 175 183 184 181 176 164 160 154 143 142 143 131 118 105 85 85 81 76 75 70 75 83 89 94 87 93 98 91 89 91 87 85 85 80
188 191 187 180 161 208 218 210 174 177 185 181 182 186 184 184 189 186 184 181 173 168 161 149 147 147 134 130 118 102 89 87 77 71 69 66 75 83 95 101 103 100 96 92 95 98 89 86 87
197 205 201 124 153 233 232 220 196 186 192 194 195 197 194 192 189 183 183 185 182 175 167 157 158 152 139 131 133 112 104 100 89 74 67 72 78 85 94 102 104 101 99 99 109 110 107 97 96
207 217 200 131 134 259 252 244 210 202 206 205 206 203 197 192 188 181 187 188 191 181 175 170 166 162 150 137 132 111 105 104 93 89 78 71 79 83 95 101 108 109 111 117 117 121 111 103 69
213 246 238 231 235 225 270 234 200 200 208 210 213 212 204 198 196 187 191 190 190 187 182 180 176 167 159 148 134 127 121 129 123 108 88 71 77 81 82 92 105 114 124 123 132 141 134 110 89
235 243 225 219 241 241 260 277 203 190 202 208 211 210 207 200 200 194 192 191 192 190 185 183 178 167 159 157 156 150 152 133 120 120 109 99 84 83 86 99 103 114 110 119 131 116 81 14 55
231 174 218 231 252 257 233 264 207 176 208 210 208 208 208 204 199 197 195 192 190 185 184 185 175 166 164 168 164 171 157 134 127 127 118 112 98 83 84 94 99 102 101 103 97 80 7 5 1
161 176 181 214 243 253 243 252 265 182 217 211 207 207 207 204 200 199 191 188 184 180 181 182 175 167 167 173 172 176 162 154 146 145 137 134 121 106 97 95 97 98 94 91 75 75 38 350 360
208 228 224 215 218 244 146 251 263 303 244 232 222 213 207 199 195 192 188 185 181 179 180 181 177 173 173 176 177 180 177 174 165 160 153 153 139 132 116 109 104 95 90 81 65 62 352 331 347
213 238 259 275 278 248 201 248 315 4 279 235 217 204 194 191 190 189 189 186 183 182 183 184 181 179 176 181 180 181 177 179 166 168 161 159 148 137 127 116 100 95 92 89 76 35 37 21 57
213 222 266 283 287 270 221 226 248 172 173 163 165 176 183 185 186 187 185 185 184 184 186 186 185 185 181 182 183 184 182 177 169 171 164 153 153 137 135 129 119 110 105 84 73 57 66 63 55
263 207 215 241 264 255 242 234 217 153 160 159 163 172 178 179 182 182 182 183 184 185 186 189 191 189 185 185 187 186 187 181 176 173 166 163 157 152 156 146 136 127 121 114 90 81 60 83 81
192 204 219 227 255 277 289 98 49 2 192 183 176 172 174 175 177 178 181 182 181 181 182 186 188 187 185 186 188 185 185 184 180 180 174 174 170 170 171 163 155 142 137 133 126 111 107 91 96
242 234 223 232 222 238 272 268 87 334 201 187 180 171 170 172 174 174 177 177 178 181 182 185 186 186 185 187 187 185 180 181 185 186 185 183 179 178 182 171 168 151 150 150 147 138 138 125 82
Height
1528 1527 1528 1530 1528 1526 1530 1530 1528 1530 1532 1535 1535 1535 1536 1538 1541 1549 1550 1548 1549 1550 1550 1550 1549 1549 1549 1549 1549 1548 1548 1548 1547 1547 1547 1547 1547 1547 1547 1547 1546 1546 1546 1546 1545 1545 1545 1545 1545
1528 1528 1530 1529 1525 1529 1534 1530 1531 1533 1536 1537 1537 1538 1539 1542 1545 1548 1549 1549 1550 1551 1551 1551 1550 1550 1550 1550 1550 1549 1549 1549 1549 1548 1548 1548 1548 1548 1548 1548 1547 1547 1547 1547 1547 1547 1546 1547 1547
1529 1529 1531 1526 1526 1529 1534 1532 1533 1536 1538 1538 1539 1541 1542 1546 1548 1549 1550 1551 1552 1552 1553 1552 1552 1552 1551 1551 1551 1550 1550 1550 1550 1550 1549 1549 1549 1549 1549 1548 1548 1548 1548 1548 1548 1548 1548 1548 1548
1530 1532 1531 1527 1530 1531 1531 1533 1535 1537 1539 1539 1540 1542 1545 1548 1549 1551 1551 1552 1553 1554 1554 1554 1553 1553 1553 1553 1552 1552 1552 1551 1551 1551 1551 1550 1550 1550 1549 1549 1549 1549 1549 1549 1549 1549 1549 1549 1549
1531 1530 1527 1530 1532 1533 1534 1536 1537 1537 1539 1540 1541 1544 1548 1550 1551 1552 1553 1554 1555 1556 1556 1555 1554 1555 1554 1554 1554 1554 1553 1553 1553 1552 1552 1552 1551 1551 1551 1551 1550 1550 1550 1550 1550 1550 1550 1550 1550
1532 1528 1528 1533 1535 1535 1536 1538 1538 1538 1541 1542 1543 1545 1550 1552 1553 1554 1554 1556 1556 1557 1557 1557 1556 1556 1556 1556 1556 1555 1555 1555 1554 1554 1553 1553 1553 1552 1552 1552 1552 1552 1551 1551 1551 1551 1551 1551 1551
1531 1528 1530 1532 1536 1536 1538 1539 1539 1540 1541 1544 1545 1546 1551 1553 1554 1555 1556 1557 1558 1558 1559 1559 1560 1559 1558 1558 1557 1557 1557 1556 1556 1555 1555 1555 1554 1554 1554 1553 1553 1553 1553 1553 1553 1553 1553 1553 1553
1532 1530 1532 1533 1536 1537 1539 1541 1542 1542 1544 1546 1547 1547 1551 1554 1555 1556 1558 1559 1559 1560 1560 1561 1561 1561 1561 1561 1559 1559 1559 1558 1557 1557 1557 1556 1556 1556 1555 1555 1555 1554 1554 1554 1554 1554 1554 1554 1554
1532 1531 1534 1535 1536 1538 1540 1541 1543 1544 1545 1547 1548 1549 1552 1554 1556 1558 1559 1560 1561 1562 1562 1562 1563 1563 1562 1562 1561 1561 1561 1560 1559 1559 1558 1558 1559 1558 1558 1557 1556 1556 1556 1556 1555 1555 1555 1555 1555
1532 1532 1535 1536 1536 1537 1540 1541 1543 1544 1546 1548 1549 1551 1553 1555 1557 1559 1560 1561 1562 1563 1563 1564 1564 1564 1564 1563 1563 1563 1563 1562 1562 1561 1561 1561 1560 1559 1559 1558 1558 1558 1558 1557 1557 1556 1556 1557 1557
1533 1534 1536 1538 1539 1540 1541 1543 1544 1544 1545 1547 1549 1552 1554 1556 1558 1559 1561 1562 1563 1564 1564 1564 1565 1565 1565 1565 1564 1564 1564 1563 1563 1563 1562 1562 1562 1561 1561 1561 1560 1560 1560 1560 1559 1559 1559 1558 1558
1535 1538 1538 1540 1541 1541 1542 1543 1545 1546 1548 1549 1550 1552 1554 1556 1558 1560 1561 1563 1563 1564 1565 1565 1565 1566 1566 1566 1566 1565 1565 1565 1565 1564 1564 1564 1563 1563 1563 1562 1562 1562 1561 1561 1561 1560 1560 1560 1560
1536 1539 1541 1542 1542 1543 1543 1545 1546 1548 1549 1550 1552 1553 1555 1557 1559 1561 1562 1563 1564 1564 1565 1566 1566 1567 1567 1567 1566 1567 1566 1566 1566 1565 1566 1565 1565 1564 1564 1564 1563 1563 1563 1562 1562 1562 1561 1561 1561
1539 1540 1542 1543 1543 1544 1544 1546 1547 1550 1551 1552 1553 1555 1556 1558 1559 1561 1562 1563 1564 1565 1566 1566 1567 1567 1567 1568 1568 1568 1568 1567 1567 1567 1567 1567 1566 1566 1565 1565 1564 1564 1564 1564 1564 1563 1563 1563 1562
1540 1540 1542 1543 1544 1545 1545 1546 1548 1550 1551 1553 1554 1556 1557 1559 1560 1561 1562 1564 1565 1566 1567 1567 1567 1568 1568 1569 1569 1569 1569 1569 1569 1568 1568 1568 1567 1567 1567 1567 1566 1566 1565 1565 1565 1565 1564 1564 1563
1539 1539 1542 1543 1544 1545 1547 1548 1548 1550 1552 1553 1554 1556 1558 1559 1561 1562 1563 1564 1566 1566 1567 1567 1568 1568 1569 1569 1569 1570 1570 1569 1569 1569 1569 1569 1569 1569 1568 1568 1567 1567 1567 1567 1566 1566 1566 1565 1565
1538 1540 1542 1543 1543 1543 1544 1546 1548 1550 1551 1552 1554 1556 1557 1559 1560 1562 1563 1564 1566 1566 1567 1568 1568 1569 1570 1570 1570 1570 1570 1570 1570 1570 1570 1570 1570 1570 1570 1569 1569 1569 1569 1569 1568 1568 1568 1567 1567
1540 1540 1541 1542 1542 1542 1543 1544 1546 1549 1550 1551 1553 1554 1556 1558 1559 1561 1563 1564 1565 1567 1568 1568 1569 1570 1570 1571 1571 1571 1571 1571 1571 1571 1571 1570 1571 1571 1571 1570 1570 1570 1570 1570 1570 1569 1569 1569 1569
1537 1539 1541 1541 1541 1542 1542 1542 1544 1547 1549 1550 1551 1553 1554 1556 1559 1560 1562 1563 1565 1566 1568 1569 1570 1570 1571 1571 1572 1572 1572 1572 1572 1572 1572 1571 1571 1571 1572 1572 1572 1571 1571 1571 1571 1571 1571 1570 1570
1538 1540 1541 1541 1541 1541 1541 1541 1541 1544 1546 1547 1549 1550 1552 1554 1557 1559 1561 1562 1564 1566 1567 1568 1570 1570 1571 1571 1572 1572 1572 1573 1573 1573 1572 1572 1572 1572 1573 1573 1573 1572 1572 1572 1572 1572 1572 1572 1572
1540 1540 1541 1542 1542 1540 1541 1541 1539 1541 1543 1546 1547 1548 1550 1552 1554 1557 1559 1561 1563 1564 1566 1568 1569 1570 1571 1571 1572 1572 1573 1573 1574 1574 1573 1573 1573 1573 1573 1573 1573 1573 1573 1573 1573 1573 1573 1573 1573
1541 1539 1540 1542 1543 1541 1542 1544 1537 1537 1540 1542 1544 1546 1548 1550 1552 1555 1557 1559 1561 1563 1565 1567 1568 1570 1570 1571 1572 1573 1573 1574 1574 1575 1574 1574 1574 1574 1574 1574 1574 1574 1574 1574 1574 1574 1574 1574 1574
1539 1539 1540 1540 1541 1541 1539 1542 1536 1534 1537 1537 1540 1542 1545 1548 1550 1553 1555 1557 1560 1562 1564 1566 1567 1568 1570 1571 1572 1573 1574 1574 1575 1575 1575 1575 1575 1575 1575 1575 1575 1575 1575 1575 1575 1575 1575 1575 1575
1540 1540 1540 1540 1539 1545 1538 1541 1538 1531 1532 1533 1536 1539 1542 1545 1548 1551 1553 1555 1558 1560 1562 1564 1566 1567 1569 1570 1571 1572 1573 1574 1575 1575 1576 1576 1576 1576 1576 1576 1576 1576 1576 1576 1576 1575 1575 1575 1575
1539 1541 1546 1546 1546 1543 1536 1539 1535 1527 1528 1531 1533 1536 1539 1542 1545 1548 1551 1553 1556 1558 1560 1563 1565 1567 1568 1570 1571 1572 1573 1574 1575 1576 1576 1577 1577 1577 1577 1577 1577 1577 1577 1576 1576 1576 1576 1575 1575
1537 1538 1546 1551 1547 1540 1538 1538 1529 1527 1529 1530 1532 1534 1537 1540 1543 1546 1549 1551 1554 1556 1558 1561 1563 1566 1567 1569 1571 1572 1573 1574 1575 1575 1576 1577 1577 1577 1577 1577 1577 1577 1577 1577 1576 1576 1576 1576 1575
1536 1536 1535 1539 1541 1543 1536 1532 1527 1526 1528 1529 1531 1533 1535 1538 1541 1544 1547 1549 1552 1554 1557 1560 1562 1564 1566 1568 1570 1571 1573 1574 1574 1575 1576 1577 1577 1577 1577 1577 1578 1577 1577 1577 1577 1577 1576 1576 1576
1535 1533 1537 1540 1547 1547 1540 1535 1531 1526 1527 1528 1530 1532 1534 1537 1540 1543 1545 1548 1550 1553 1555 1558 1561 1563 1565 1567 1569 1570 1571 1573 1574 1575 1576 1576 1577 1577 1578 1578 1578 1578 1577 1577 1577 1577 1576 1576 1576
1536 1537 1535 1537 1539 1545 1546 1538 1523 1524 1525 1527 1529 1531 1533 1536 1538 1541 1544 1547 1549 1551 1554 1556 1559 1561 1563 1565 1567 1569 1570 1571 1573 1574 1575 1576 1577 1577 1578 1578 1578 1578 1578 1578 1577 1577 1577 1577 1576
1532 1531 1532 1539 1540 1539 1542 1536 1521 1524 1525 1527 1528 1531 1533 1535 1538 1540 1543 1545 1548 1550 1553 1555 1558 1560 1562 1564 1566 1567 1569 1570 1571 1573 1574 1575 1576 1577 1577 1578 1578 1578 1578 1578 1577 1577 1577 1576 1576